Theta_e
337 337 336 335 335 335 335 335 335 334 334 334 334 334 334 333 333 333 333 333 332 332 331 331 331 330 330 331 331 330 329 330 330 329 329 329 330 330 330 330 329 329 331 331 331 331 331 331 330 329 329 330 329 329 329 329 329 329 328 327 328 327 327
336 335 335 335 335 334 335 334 334 334 334 334 334 334 334 333 333 333 332 332 331 331 331 331 331 330 329 330 330 330 330 330 330 329 329 329 330 330 330 330 329 330 330 329 330 331 331 332 330 329 329 330 329 329 329 329 330 329 328 327 328 328 327
335 335 335 335 335 334 334 334 334 334 334 333 333 334 334 333 332 332 332 332 331 331 331 331 331 330 329 330 330 330 330 330 330 330 329 330 330 329 329 329 330 331 330 329 330 330 329 330 330 330 331 330 330 329 329 329 329 330 329 328 327 328 327
334 334 334 335 335 335 334 333 333 333 333 333 333 333 333 333 332 332 332 332 331 330 331 332 332 331 331 331 331 330 330 330 330 330 330 330 329 329 329 330 332 332 330 330 331 331 331 330 330 331 331 330 330 329 329 329 330 329 329 328 328 327 327
334 334 334 335 335 335 334 333 333 333 333 333 333 333 333 333 332 331 331 331 331 331 331 331 331 331 331 332 332 331 331 331 330 331 331 331 330 330 330 331 332 331 329 330 331 331 332 331 330 331 330 329 330 330 329 330 330 329 329 329 328 327 326
333 333 333 334 334 333 333 333 333 332 333 334 333 333 333 333 332 331 331 331 331 331 331 331 331 331 331 332 332 331 331 331 331 331 332 332 332 332 331 330 331 331 330 330 329 330 330 329 330 331 330 329 331 331 330 330 329 329 329 329 327 326 325
331 331 332 332 333 332 331 332 332 333 333 333 333 333 333 333 332 331 332 332 331 331 331 332 332 331 331 331 331 331 330 330 331 331 332 332 332 332 332 331 330 330 331 330 329 329 329 328 329 331 330 329 330 329 329 330 329 328 328 328 326 325 324
329 329 330 330 330 331 331 331 332 332 333 333 333 333 333 333 332 332 332 332 332 332 332 333 332 331 331 331 332 332 330 330 330 330 331 331 331 332 333 332 331 331 331 330 329 329 329 329 329 330 329 330 330 328 329 329 328 328 327 326 325 323 323
329 329 329 330 329 330 330 330 331 332 332 332 332 332 333 333 333 332 332 333 333 333 333 332 331 331 331 331 332 331 331 330 330 330 330 330 331 332 333 332 330 330 330 329 329 330 330 329 328 328 329 329 330 330 329 328 327 327 325 325 325 323 324
328 329 330 330 330 330 330 330 330 331 331 332 332 332 332 333 333 333 332 332 333 333 333 331 330 331 331 331 331 331 331 331 331 331 330 330 332 332 333 331 330 330 330 330 331 332 331 329 329 329 329 329 329 330 330 328 328 327 326 326 325 324 324
326 328 329 329 330 330 330 330 329 330 330 331 332 332 332 332 333 333 332 332 332 333 332 331 331 331 331 331 331 331 331 331 331 332 332 331 332 331 331 331 330 330 331 331 332 332 332 330 330 329 328 329 328 329 329 329 328 327 326 326 325 324 324
323 326 328 329 329 329 330 330 329 330 330 331 332 332 332 331 332 332 331 331 332 333 332 331 331 331 331 332 332 332 332 332 332 333 332 332 331 331 330 331 331 331 331 331 331 332 332 331 329 328 328 329 328 328 329 329 330 328 326 327 324 324 324
321 323 327 328 329 329 329 329 329 330 330 330 331 332 331 331 331 331 331 331 332 332 333 332 331 331 331 332 332 332 332 332 332 332 332 332 332 331 331 332 331 331 331 331 330 330 331 331 330 329 328 328 328 329 329 329 329 328 326 327 325 324 324
318 321 324 326 329 329 329 329 329 329 330 330 331 331 331 331 330 331 330 331 332 332 333 333 331 331 331 331 332 332 332 332 332 332 332 332 332 331 332 332 332 332 332 331 329 329 330 331 331 330 328 327 328 330 330 329 329 327 326 327 325 324 323
316 318 321 324 327 328 328 328 328 328 329 329 330 331 331 330 330 330 331 331 332 332 332 332 331 331 331 331 332 332 332 333 332 332 332 332 332 332 332 332 332 332 332 331 330 330 331 332 331 329 328 327 328 329 330 329 328 328 327 326 325 324 324
314 316 318 321 324 326 327 328 328 328 328 328 329 329 330 331 330 330 331 331 330 330 331 332 331 332 332 332 332 332 332 333 332 332 332 332 332 331 332 332 332 332 332 332 331 330 331 331 330 328 327 328 329 329 330 329 329 328 327 325 324 324 324
313 314 316 318 321 324 326 327 328 327 326 327 328 328 329 330 330 330 331 331 330 330 331 332 332 332 332 332 332 332 332 332 332 332 332 331 332 331 332 332 332 332 332 332 332 331 330 330 329 328 327 328 329 330 329 329 328 327 325 323 322 322 322
312 312 313 315 318 322 325 327 327 326 325 324 325 327 328 329 330 330 330 329 329 330 331 332 332 332 332 332 332 332 332 332 332 332 332 331 331 331 332 332 332 332 332 332 332 331 330 330 329 328 328 328 328 329 328 327 326 325 325 323 321 320 319
311 311 312 313 315 319 324 326 326 325 324 323 324 326 328 329 329 329 329 329 328 329 331 332 332 332 332 332 332 332 332 332 332 331 332 331 331 331 331 331 332 332 332 332 332 332 331 330 330 329 328 328 328 329 328 326 325 324 325 323 320 318 318
311 311 311 312 314 317 322 325 325 324 324 324 325 327 327 328 329 329 329 329 329 330 332 333 333 332 332 332 331 331 332 331 331 331 332 332 331 331 331 331 331 331 331 332 331 331 331 331 330 330 329 329 329 328 327 325 325 325 324 323 320 319 318
310 310 310 310 312 314 318 323 324 324 324 324 325 326 326 327 328 329 329 330 329 330 330 331 332 332 332 331 331 331 332 331 331 331 331 331 331 331 331 331 331 331 331 331 331 331 331 331 331 331 330 329 328 327 326 325 324 323 323 323 322 320 319
310 310 309 309 310 311 314 319 322 323 324 324 324 324 325 327 327 328 329 329 328 328 328 329 332 332 331 331 330 330 331 331 331 331 330 330 330 330 330 331 331 331 331 331 331 330 331 331 331 332 332 329 328 327 325 324 324 322 322 323 321 320 319
309 309 309 308 308 308 310 314 318 320 322 324 323 323 324 325 326 327 329 329 328 328 327 329 331 331 330 330 329 330 330 330 330 330 330 330 330 329 330 330 330 330 329 329 329 329 330 330 330 331 331 329 328 327 325 324 324 322 321 322 323 322 321
308 308 308 308 308 307 307 309 312 315 318 320 321 322 323 324 325 326 327 328 328 328 329 330 331 330 329 329 330 330 330 329 329 329 329 329 329 329 329 330 330 329 328 328 328 328 329 329 329 329 329 328 328 328 326 324 324 322 321 323 324 323 322
308 307 307 307 307 306 306 306 307 309 312 314 316 318 319 320 322 324 325 325 326 326 327 329 330 330 329 328 329 329 330 330 329 329 329 329 329 329 329 330 330 330 329 328 328 328 327 328 328 328 328 327 327 328 327 325 324 324 324 324 324 324 322
307 307 307 306 306 306 305 305 305 306 307 308 311 312 313 315 317 318 319 321 322 323 323 324 326 328 328 328 328 328 329 329 330 329 330 330 329 329 329 330 330 330 329 328 328 328 327 327 327 327 327 327 327 328 327 326 326 326 326 325 325 325 324
307 307 306 306 306 305 305 304 304 305 305 305 306 308 309 310 311 312 314 316 318 319 320 321 322 325 327 328 328 327 327 328 329 329 330 330 330 330 330 330 330 330 329 327 327 328 327 326 325 325 326 325 324 324 325 326 325 325 325 327 328 327 326
306 306 306 306 305 305 305 304 304 304 304 304 304 305 306 307 308 309 310 311 313 313 314 317 319 322 324 325 326 326 326 327 328 328 329 330 330 330 330 330 330 329 328 327 327 327 327 325 324 324 323 320 319 321 323 324 323 322 322 322 324 324 323
306 306 305 305 305 305 305 304 303 303 303 303 303 303 303 304 304 305 307 308 310 310 310 312 315 318 320 322 323 323 324 326 327 327 328 329 329 330 329 329 329 329 328 327 326 326 325 324 324 322 320 317 317 319 320 320 321 320 319 318 319 320 320
305 305 305 305 305 305 304 304 304 303 303 303 302 302 302 302 302 303 303 304 306 308 308 310 312 314 316 318 319 320 322 324 326 326 327 327 327 328 328 329 329 329 329 327 326 325 323 322 321 320 317 315 314 313 313 314 315 315 315 316 316 316 317
304 304 305 305 304 304 304 304 304 303 303 303 302 301 301 301 301 301 301 301 302 304 305 307 309 312 314 315 317 318 320 323 324 325 325 325 324 324 325 327 327 328 328 325 325 325 323 321 320 318 316 314 312 310 308 308 309 309 310 311 311 312 313
303 304 304 304 304 304 304 304 304 303 303 303 302 302 301 301 300 300 300 300 300 301 302 304 306 309 311 313 314 314 317 321 323 322 321 321 320 318 319 323 325 325 325 324 323 322 320 319 319 317 315 314 312 309 307 306 307 307 307 307 307 309 310
303 303 303 303 304 304 303 303 303 303 303 303 303 302 302 301 301 300 300 300 299 299 299 300 302 305 307 310 311 310 312 315 317 318 317 318 317 315 314 317 320 320 320 320 320 318 315 316 318 316 315 314 312 310 309 308 308 308 307 306 306 307 308
302 302 302 303 303 303 303 303 303 303 303 303 302 302 302 302 302 301 300 300 299 298 298 298 300 302 304 306 308 308 309 310 311 311 311 311 311 310 309 310 314 316 316 315 314 313 313 315 316 316 316 315 312 310 309 308 307 307 306 306 306 306 305
302 302 301 301 302 302 302 302 302 302 302 302 302 302 302 302 302 301 301 300 299 299 298 298 299 300 301 303 305 305 307 308 308 308 307 306 305 304 304 305 308 310 311 309 308 309 311 314 315 315 315 313 310 308 308 307 307 307 307 306 306 305 304
302 301 301 301 301 301 301 301 301 301 301 301 301 301 301 301 301 301 301 300 300 299 298 298 298 299 300 301 302 303 304 305 306 307 307 304 302 300 300 301 303 304 305 305 305 307 309 311 312 312 311 309 307 306 307 307 307 307 307 306 306 305 304
301 301 301 301 300 300 300 300 300 300 300 300 300 300 300 300 300 300 300 300 300 299 299 298 297 298 299 300 301 301 302 302 304 306 304 302 300 299 299 299 301 302 304 304 305 306 307 307 307 307 306 306 305 305 305 305 305 305 304 304 303 302 302
Wind_Speed
10 10 10 10 11 10 10 10 10 11 10 11 12 13 14 15 15 14 13 13 14 14 14 14 16 22 25 24 21 20 20 21 21 21 20 19 19 20 21 21 20 14 9 9 9 7 7 7 9 11 14 16 14 14 12 11 11 10 8 8 8 9 9
11 11 10 11 11 10 10 11 10 11 11 11 12 13 14 15 14 14 13 13 14 14 13 13 14 17 23 24 20 19 21 21 21 21 21 21 20 19 19 20 21 16 12 13 13 11 8 6 6 8 13 13 11 14 15 11 11 11 9 9 10 9 9
10 11 11 12 13 11 11 11 10 11 11 11 12 13 13 14 14 14 13 14 15 14 14 14 14 14 18 19 18 19 19 19 20 19 18 19 19 20 20 18 16 13 11 14 16 15 12 10 9 9 13 14 10 12 15 13 13 12 11 11 10 10 10
11 11 11 13 13 11 11 11 11 11 11 11 12 13 13 14 15 15 14 15 15 15 15 15 15 15 15 15 16 18 18 17 18 17 16 17 18 20 21 17 14 14 14 13 12 13 12 11 9 9 12 15 13 14 16 15 14 13 12 11 11 11 10
12 12 13 13 12 11 11 12 12 12 11 11 12 14 15 14 15 15 14 15 16 15 15 15 15 15 14 13 14 15 16 17 17 16 16 17 17 18 19 18 15 16 19 16 11 11 11 9 7 7 13 15 12 13 16 16 14 14 13 12 12 11 11
10 11 14 14 15 15 13 13 14 13 11 11 12 15 16 15 15 15 15 17 17 16 15 14 14 14 12 12 14 14 14 15 16 15 15 15 16 17 18 18 18 18 20 20 17 15 14 13 10 6 11 15 11 10 14 16 14 13 13 13 13 12 11
11 12 13 14 16 18 16 15 14 13 12 12 13 15 15 16 16 15 15 17 17 16 15 14 13 13 12 12 13 14 15 15 13 13 15 15 16 17 16 16 18 17 17 18 20 19 16 14 11 7 8 11 12 12 13 15 15 13 13 14 13 13 12
12 13 13 14 15 16 16 16 15 13 13 13 14 14 15 16 16 15 15 16 16 15 14 15 15 14 12 11 11 13 15 15 14 14 15 16 17 17 15 14 17 18 16 17 20 19 17 13 10 11 12 8 8 11 11 13 16 15 14 14 14 14 13
13 14 14 14 14 14 14 14 14 13 13 13 14 14 14 15 14 14 15 16 17 15 15 15 15 14 13 13 13 14 17 17 17 17 18 18 18 16 15 15 18 19 17 17 18 15 15 14 12 14 15 12 9 8 8 10 12 13 15 15 14 14 13
14 15 15 15 15 16 15 14 13 13 14 14 13 13 14 14 13 13 15 17 17 16 15 16 16 14 14 14 14 15 17 18 18 19 19 17 16 15 15 17 17 17 15 14 15 13 13 16 16 15 15 15 13 8 6 7 8 11 15 15 14 14 15
16 16 16 15 15 16 17 16 14 14 14 13 12 12 12 13 13 14 16 18 18 17 17 16 15 15 15 14 13 13 14 16 16 17 17 16 16 16 16 15 15 14 13 12 12 12 12 15 16 14 13 15 15 11 8 8 7 10 15 15 14 14 16
17 17 16 15 15 16 16 16 14 12 13 13 12 11 12 13 14 15 17 18 18 18 18 17 16 16 16 14 13 14 14 15 16 15 15 15 16 16 14 14 14 13 13 13 13 13 12 14 16 16 14 15 16 15 10 6 5 7 12 14 14 14 16
18 18 17 16 16 16 16 15 14 12 13 13 13 12 12 14 15 15 17 19 20 19 19 18 18 17 16 15 15 15 15 16 16 15 15 15 15 15 14 15 15 14 13 15 16 15 13 13 15 17 17 16 16 15 10 4 4 7 11 12 13 13 15
19 18 18 17 16 17 17 16 14 13 14 14 13 13 14 15 16 16 18 20 20 20 20 19 18 17 16 16 15 15 16 16 16 15 14 15 15 15 14 15 14 15 14 14 16 16 15 14 14 16 16 17 18 15 10 8 7 9 9 10 13 13 14
19 19 18 17 17 17 17 17 15 15 15 15 14 14 15 16 17 17 18 20 21 20 20 18 18 17 16 15 15 15 15 16 16 16 15 15 15 14 14 15 14 14 14 14 16 16 15 14 13 14 15 17 18 15 14 15 13 11 10 9 12 14 14
19 20 19 17 17 17 18 17 16 16 16 16 16 17 16 16 18 18 18 20 21 20 19 18 17 17 16 15 15 15 15 16 16 16 16 15 15 14 14 15 15 14 14 14 15 15 15 15 16 17 19 19 18 15 14 15 12 10 11 11 13 14 15
19 20 20 19 18 18 18 17 15 17 17 16 17 18 17 16 17 17 17 19 19 18 17 17 17 16 15 14 15 15 15 15 15 15 15 15 14 14 14 15 15 15 14 14 15 16 16 17 18 21 22 19 16 14 12 11 10 9 10 11 13 15 15
19 21 21 21 20 20 18 16 15 16 16 15 16 16 15 16 17 18 17 18 18 17 17 17 16 16 15 15 15 15 14 14 14 14 14 14 14 14 14 14 15 15 15 14 15 16 17 17 18 19 19 18 16 15 14 12 11 12 11 10 13 14 13
20 21 21 22 21 20 18 16 15 15 13 14 15 14 14 16 18 19 19 18 19 19 18 17 16 15 15 15 15 15 14 13 14 14 14 14 14 14 14 14 15 15 16 15 15 15 16 17 18 17 17 18 15 14 16 14 13 14 13 10 12 13 12
21 21 22 22 21 20 18 15 14 13 12 11 11 12 14 15 17 18 18 18 18 18 16 15 15 15 14 14 14 14 14 13 13 14 14 14 14 14 14 15 15 15 16 15 15 15 16 17 18 18 18 17 14 14 19 15 12 14 14 11 12 13 13
21 21 22 21 21 20 19 16 13 11 10 8 7 8 10 11 13 14 13 12 13 14 15 14 14 14 14 13 13 13 13 13 13 13 14 14 14 14 14 15 15 15 16 16 16 16 16 17 18 19 19 17 14 14 18 16 11 11 13 14 14 13 14
21 21 22 22 22 23 21 17 12 9 8 7 7 7 8 8 10 11 9 9 12 17 18 16 14 14 14 13 13 13 13 13 13 13 13 13 14 15 14 14 14 15 15 16 17 17 17 18 18 17 17 15 13 12 14 19 18 12 9 11 14 13 14
22 22 22 23 23 24 23 20 15 12 9 7 8 9 7 8 11 11 9 9 12 16 17 14 13 15 15 13 13 13 13 13 13 13 13 13 14 15 14 14 14 15 17 17 18 19 19 19 19 16 14 14 15 13 11 18 19 15 9 9 11 11 11
23 22 22 23 23 23 24 22 19 17 14 10 8 8 7 7 9 11 10 10 12 13 12 11 13 15 16 15 13 12 12 13 13 13 14 14 14 15 14 13 13 15 17 17 17 19 21 20 19 17 15 15 14 12 11 14 18 19 19 16 13 13 13
23 23 23 23 23 23 23 22 21 21 20 17 12 9 7 6 6 8 10 11 11 11 6 5 8 12 14 15 15 13 12 13 13 13 14 14 14 14 13 13 13 13 14 15 14 16 19 20 18 17 17 16 14 12 13 16 18 18 20 18 16 17 17
24 24 24 23 23 22 22 22 21 20 19 18 16 13 11 9 6 6 8 9 9 10 8 8 9 11 14 16 16 15 13 12 12 13 13 13 13 13 13 13 13 12 12 14 14 13 14 16 17 17 16 16 16 15 15 16 17 18 18 17 17 17 15
24 24 24 24 23 23 23 22 20 19 17 17 17 16 15 13 10 8 6 6 7 8 7 11 12 12 14 16 17 17 15 12 12 13 13 13 13 12 13 13 13 13 12 13 15 14 12 13 14 14 13 11 12 14 14 15 17 19 20 18 14 12 9
24 24 24 24 24 23 23 22 20 19 18 18 17 16 15 14 13 12 10 7 6 7 6 9 11 12 14 16 17 18 17 14 13 13 13 13 13 12 13 13 13 13 13 13 15 16 15 13 12 12 12 10 10 11 13 14 15 16 18 17 12 12 12
24 24 24 24 24 24 23 23 21 19 18 17 18 17 16 15 14 14 15 12 9 8 9 9 10 12 14 16 17 17 17 16 15 13 13 13 13 12 12 12 13 13 13 14 16 18 17 15 14 14 13 11 11 11 12 14 15 13 14 16 14 17 20
24 24 24 24 24 23 23 22 21 21 19 18 18 18 17 17 17 16 16 16 14 12 12 12 11 10 11 13 15 15 15 17 16 13 13 13 12 11 12 13 13 12 12 14 17 19 20 18 15 15 15 12 11 9 8 9 10 10 11 14 16 16 18
23 23 24 24 23 23 22 22 21 21 20 19 19 18 17 17 18 18 17 17 17 14 12 13 13 11 9 9 12 12 12 16 15 11 10 11 10 9 14 17 15 11 12 15 17 19 20 17 14 15 16 15 13 13 12 13 13 13 12 13 13 13 12
21 22 22 22 22 22 21 21 21 20 19 19 19 19 18 18 17 18 18 18 19 18 16 15 14 12 11 9 10 9 9 11 11 10 9 10 9 7 11 18 19 15 14 15 16 18 18 15 13 15 17 17 16 16 17 18 19 19 18 17 17 17 17
20 21 22 21 21 22 21 21 20 20 19 19 19 18 19 19 18 18 18 18 19 22 22 19 16 14 11 10 9 8 7 5 5 5 6 7 7 7 7 13 16 14 12 14 17 20 20 17 14 15 16 16 17 18 17 16 17 17 18 19 20 20 18
21 21 21 21 20 21 21 21 20 20 19 19 19 19 19 19 19 19 18 17 18 20 23 23 20 17 13 11 9 7 6 6 4 7 7 5 5 7 6 8 11 11 12 17 22 23 21 19 16 15 14 15 19 22 20 18 18 18 18 19 18 17 16
21 21 21 21 20 20 20 20 20 20 19 19 19 19 19 19 19 19 18 18 17 18 21 24 23 20 16 13 10 5 3 6 6 8 10 10 9 9 8 9 11 12 15 19 21 20 19 19 18 16 15 18 22 23 20 18 17 15 14 14 13 13 13
20 20 21 21 21 21 20 20 20 20 20 20 19 19 19 18 18 19 19 19 18 17 18 22 24 23 19 16 13 9 4 2 5 9 11 12 11 10 11 12 12 13 16 16 16 15 15 15 16 16 18 22 24 22 18 16 13 12 12 12 12 12 11
19 20 20 20 21 22 22 21 20 20 20 20 21 21 20 19 18 18 19 19 20 18 17 19 23 25 24 20 18 16 12 9 10 13 16 18 18 16 17 17 14 13 14 14 13 14 14 15 17 20 22 24 23 19 16 14 13 12 12 11 11 12 11
Wind_Direction
261 267 267 261 255 252 254 250 245 245 243 238 235 233 238 240 234 224 219 224 227 224 221 216 217 220 215 207 205 203 204 209 208 207 208 206 208 214 216 222 231 243 237 209 204 196 188 194 197 203 210 209 203 199 200 199 190 184 181 179 174 172 168
261 265 266 261 251 243 247 247 241 236 233 233 233 233 241 243 233 224 217 215 217 217 212 207 207 214 215 208 202 198 201 208 212 212 209 209 213 215 216 219 227 233 229 224 215 196 192 188 179 196 200 196 200 203 202 199 192 186 187 187 180 177 170
267 263 262 259 252 244 246 251 247 241 237 238 238 233 237 239 232 226 218 208 209 211 210 202 195 198 204 203 199 199 203 209 214 215 214 216 219 221 221 218 221 219 214 223 210 190 189 195 192 193 188 186 191 202 202 197 192 190 190 190 185 182 174
279 273 261 257 255 249 248 252 251 249 246 246 243 235 231 234 232 226 217 208 205 206 208 203 193 189 191 194 199 202 204 209 215 218 221 222 221 223 224 221 219 214 216 229 214 197 203 204 197 186 187 193 189 190 198 196 191 192 192 191 189 187 178
288 280 267 261 261 258 251 245 243 243 240 237 237 233 229 231 231 224 217 210 205 203 206 205 199 195 193 193 196 198 203 212 217 219 221 221 219 222 226 224 222 218 224 234 226 219 224 218 216 191 185 194 189 183 189 189 190 193 193 193 193 188 179
291 285 278 272 268 265 258 245 240 242 239 232 231 230 227 230 228 223 217 208 203 202 203 206 205 204 204 199 194 196 208 217 218 220 223 222 221 226 227 227 228 224 228 232 224 224 226 222 236 230 188 187 183 175 179 183 187 189 193 198 194 186 183
294 289 285 280 272 268 265 257 250 248 246 240 237 232 227 227 225 220 216 207 202 200 201 202 203 207 209 203 196 198 211 222 223 225 228 226 227 231 229 229 233 230 230 232 226 221 221 219 227 234 198 180 176 176 177 185 187 185 192 197 194 189 188
299 293 285 280 275 271 269 264 258 252 247 244 243 237 226 222 220 219 216 207 201 198 198 200 202 203 202 200 199 202 212 221 226 230 231 231 232 232 231 231 234 231 227 230 227 219 217 221 223 221 207 181 177 183 178 185 190 190 191 189 192 194 189
307 297 288 281 277 274 270 264 258 254 248 244 245 242 230 221 216 217 216 207 201 200 196 197 198 198 199 199 199 201 207 213 221 227 227 229 231 231 232 233 231 231 228 225 226 225 222 224 237 240 218 194 191 191 177 187 193 192 190 185 186 190 185
315 307 298 291 284 278 272 265 259 256 251 245 243 241 237 228 217 215 214 206 202 202 199 198 199 198 200 202 201 203 207 210 216 223 222 222 225 226 230 233 232 233 230 222 221 228 226 223 234 245 228 209 205 192 169 188 200 191 187 186 184 183 184
322 313 305 298 291 283 276 269 260 254 249 244 238 236 237 232 222 217 214 208 206 206 203 201 200 197 197 202 206 210 214 214 216 221 220 218 223 227 229 234 233 230 229 224 220 223 225 225 230 233 231 224 216 207 192 185 193 194 184 185 189 183 183
327 318 307 300 293 287 282 275 266 255 249 243 237 235 235 231 225 219 215 211 209 207 204 201 200 198 197 201 209 214 218 219 219 220 219 219 225 228 228 231 230 226 224 219 217 222 224 226 228 226 232 236 224 220 222 185 166 199 191 187 193 184 179
329 322 313 304 295 289 285 280 271 260 252 246 240 237 234 230 225 219 214 211 209 205 202 202 201 200 200 203 209 216 218 219 219 219 219 220 222 223 224 227 224 219 220 217 216 221 221 219 222 223 228 238 231 222 223 198 154 194 199 189 189 185 179
332 328 321 312 301 293 288 282 274 264 256 249 241 236 232 229 225 219 212 209 208 205 202 201 199 199 203 205 209 216 215 215 216 216 217 219 218 218 221 224 221 216 216 216 216 216 214 211 215 223 227 232 231 219 208 213 191 172 183 188 187 187 179
336 334 329 320 310 301 293 285 278 268 257 249 242 233 228 228 225 218 211 208 207 206 204 201 198 200 203 202 204 208 210 211 213 212 214 216 215 216 218 220 221 217 211 213 216 212 209 207 206 217 226 227 227 216 204 216 207 166 164 186 189 184 179
340 341 337 328 319 309 299 290 282 274 265 256 246 234 228 230 226 216 212 211 208 205 203 200 200 202 201 199 201 204 207 209 209 210 212 212 211 212 215 218 220 216 210 211 216 212 208 208 204 207 216 219 220 215 207 216 217 186 173 181 189 186 180
342 344 341 334 327 317 304 294 286 282 277 268 253 238 232 234 227 215 211 211 208 206 203 200 201 202 200 200 201 204 207 209 209 210 210 209 210 210 213 218 219 216 212 211 215 215 212 212 211 211 214 213 210 210 209 207 213 217 197 178 187 192 184
343 344 341 337 333 324 310 298 290 287 281 272 261 249 239 234 226 216 212 208 205 206 205 200 199 198 197 198 200 203 207 208 210 211 210 209 209 211 213 217 218 216 214 212 214 214 213 214 216 217 218 216 207 203 204 200 202 219 218 186 183 193 186
344 344 342 339 336 331 320 306 297 294 287 271 261 258 250 239 229 219 212 206 204 207 204 199 196 195 193 194 198 202 203 205 207 210 211 210 209 211 215 216 219 217 213 214 214 213 214 214 217 221 221 221 217 197 186 189 200 213 217 200 185 187 186
346 345 344 342 339 334 330 319 306 303 301 281 262 263 261 248 236 227 217 209 205 205 202 196 194 193 192 194 198 199 199 200 204 207 209 210 208 209 213 215 217 217 215 216 216 214 214 213 216 221 221 224 226 198 179 184 205 212 213 209 192 187 190
350 348 347 348 348 345 342 334 319 314 319 310 288 284 282 264 247 240 233 223 212 206 204 200 195 193 190 192 196 198 199 198 201 207 209 209 208 206 208 212 216 217 217 218 217 216 216 216 218 223 223 223 225 204 180 178 199 214 214 214 205 194 193
355 352 351 353 356 359 360 354 337 330 337 339 336 328 319 306 282 262 251 244 230 217 210 202 194 191 188 191 197 200 202 201 200 206 209 209 209 207 205 208 212 217 218 218 218 216 216 217 216 221 226 224 229 226 189 177 190 206 213 215 210 202 199
0 359 357 356 356 360 7 10 4 358 1 5 2 351 335 323 308 289 264 246 236 223 213 203 196 193 187 189 199 201 200 201 201 204 206 208 210 208 207 207 208 212 216 218 219 218 218 218 214 218 224 217 224 232 191 166 177 190 204 228 225 210 206
6 5 3 1 360 359 3 10 14 14 16 24 27 12 352 336 321 308 295 276 257 241 222 205 201 201 196 194 200 202 201 202 202 203 204 207 209 208 208 207 205 209 214 217 220 219 219 219 218 220 222 216 219 224 198 172 175 189 207 223 226 213 207
10 10 9 7 6 3 1 5 11 15 18 20 24 20 4 352 329 317 321 312 291 281 268 223 209 212 211 207 204 204 207 205 203 207 207 208 210 208 206 205 203 205 209 211 214 217 216 218 219 220 220 219 222 222 209 192 182 191 208 216 217 216 211
13 13 13 11 10 9 7 6 7 9 13 15 17 19 15 8 347 323 329 335 332 331 321 292 261 233 222 221 214 210 217 216 209 212 212 209 210 206 202 203 202 201 205 206 204 206 209 212 215 216 218 223 228 231 224 205 193 197 208 215 218 217 213
15 15 16 14 13 13 12 10 8 7 9 11 13 15 15 12 5 349 338 344 2 359 316 280 268 245 228 229 225 219 225 230 221 219 218 212 209 203 199 201 200 198 202 204 201 198 199 203 206 209 210 211 218 228 228 219 215 211 209 214 217 211 208
16 16 16 16 16 15 14 13 11 10 11 12 13 13 12 10 5 0 356 353 9 9 324 279 266 252 237 233 232 228 231 238 233 227 224 216 209 204 201 201 201 198 198 201 200 195 193 196 193 187 184 179 188 210 221 223 227 223 216 218 215 211 219
16 16 15 16 17 16 16 15 14 14 13 14 15 14 13 12 7 4 2 358 357 352 328 299 276 263 248 239 238 235 236 242 240 231 228 220 209 204 202 202 205 202 195 198 203 195 187 187 182 172 171 179 193 208 217 220 223 222 220 221 217 217 224
17 16 16 17 16 15 16 16 16 17 16 16 16 15 14 15 13 12 10 6 4 354 337 324 308 284 260 246 241 237 241 247 243 232 228 222 209 201 195 195 202 202 193 199 207 199 186 179 171 163 164 168 169 171 178 190 201 205 209 213 213 212 216
16 16 16 17 16 15 15 16 17 19 20 20 20 18 17 17 17 17 14 11 11 8 354 341 328 308 284 252 228 225 246 252 236 216 209 206 202 200 195 191 191 189 193 206 210 201 191 182 169 160 157 151 141 136 138 139 139 143 154 169 177 177 175
16 15 16 17 17 17 16 15 16 19 22 24 23 23 23 21 20 20 17 15 16 15 11 1 346 329 310 275 230 222 257 261 230 200 185 179 174 180 194 194 188 182 194 209 204 191 184 180 170 163 157 147 136 133 134 131 127 125 128 133 138 142 143
20 18 18 18 17 18 17 15 15 17 20 23 24 24 25 24 22 22 21 21 22 19 17 13 4 352 333 305 274 259 273 270 220 184 174 172 158 145 173 193 189 184 192 194 182 175 174 171 168 164 157 148 142 140 138 134 130 127 125 127 129 130 130
25 23 22 21 20 20 19 17 15 15 16 20 22 22 24 24 23 22 21 22 23 21 20 20 18 12 2 345 326 301 267 238 183 136 119 107 102 106 132 172 180 183 183 175 170 169 168 165 163 161 159 156 151 148 142 136 133 129 125 126 124 118 115
27 26 25 25 24 22 21 20 18 17 15 15 17 19 21 22 23 22 21 21 22 21 20 23 26 26 23 18 15 1 275 235 198 149 124 98 80 83 107 135 151 165 170 168 168 168 165 163 160 156 159 161 153 144 137 132 132 130 125 124 120 113 109
29 30 28 28 27 26 24 23 22 22 20 18 17 17 17 18 20 21 21 20 21 22 21 25 31 36 38 39 44 52 64 166 169 149 126 107 95 90 99 113 130 149 158 158 159 159 159 159 156 150 151 150 142 133 129 128 130 129 123 120 115 109 106
30 31 31 31 31 30 27 26 25 23 22 22 22 21 18 16 17 18 19 19 20 21 22 25 34 42 49 54 60 67 77 98 120 123 111 104 103 100 100 107 117 133 142 141 139 138 137 137 136 137 140 139 131 125 123 121 118 115 108 101 98 93 87